Trinidad, CO

12:40 PM MDT on September 20, 2017 (GMT -0600)
Stokes

Weather History for KTAD - September, 2012

Change the Weather History Date:

Sunday, September 2, 2012

  Actual Average Record
Temperature  
Mean Temperature 77 °F 69 °F  
Max Temperature 90 °F 84 °F 97 °F (1983)
Min Temperature 64 °F 54 °F 40 °F (1952)
Degree Days  
Heating Degree Days 0 1  
Month to date heating degree days 0 2  
Since 1 July heating degree days 0 12  
Cooling Degree Days 12 5  
Month to date cooling degree days 23 10  
Year to date cooling degree days 1108 652  
Growing Degree Days 28 (Base 50)    
Moisture  
Dew Point 40 °F    
Average Humidity 32    
Maximum Humidity 44    
Minimum Humidity 19    
Precipitation  
Precipitation T in 0.05 in 0.35 in (1982)
Month to date precipitation T 0.11  
Year to date precipitation 10.57  
Snow  
Snow 0.00 in - - ()
Month to date snowfall 0.0  
Snow Depth 0.00 in    
Sea Level Pressure  
Sea Level Pressure 29.88 in    
Wind  
Wind Speed 7 mph (West)    
Max Wind Speed 20 mph    
Max Gust Speed 24 mph    
Visibility 10 miles    
Events      
T = Trace of Precipitation, MM = Missing Value Source: NWS Daily Summary

Daily Weather History Graph

Daily Weather History Graph

Search for Another Location

Airport or City:

Trip Planner

Search our weather history database for the weather conditions in past years. The results will help you decide how hot, cold, wet, or windy it might be!

Date:

Astronomy

Sep. 02, 2012 Rise Set
Actual Time 6:29 AM MDT 7:23 PM MDT
Civil Twilight 6:02 AM MDT 7:50 PM MDT
Nautical Twilight 5:31 AM MDT 8:21 PM MDT
Astronomical Twilight 4:58 AM MDT 8:54 PM MDT
Moon 8:17 PM MDT (9/2) 8:35 AM MDT (9/2)
Length of Visible Light 13h 47m
Length of Day
12h 54m
Waning Gibbous, 95% of the Moon is Illuminated
Sep 2
Waning Gibbous
Sep 8
Last Quarter
Sep 15
New
Sep 22
First Quarter
Sep 29
Full

Hourly Weather History & Observations

Time (MDT) Temp. Dew Point Humidity Pressure Visibility Wind Dir Wind Speed Gust Speed Precip Events Conditions
12:54 AM 77.0 °F 33.1 °F 20% 29.83 in 10.0 mi SW 16.1 mph 23.0 mph N/A   Clear
2:54 AM 73.0 °F 34.0 °F 24% 29.82 in 10.0 mi WSW 16.1 mph - N/A   Clear
3:54 AM 72.0 °F 34.0 °F 25% 29.82 in 10.0 mi WSW 16.1 mph - N/A   Clear
4:54 AM 70.0 °F 34.0 °F 27% 29.83 in 10.0 mi WSW 15.0 mph - N/A   Clear
5:54 AM 68.0 °F 35.1 °F 30% 29.85 in 10.0 mi WSW 15.0 mph - N/A   Clear
6:54 AM 66.0 °F 36.0 °F 33% 29.90 in 10.0 mi WNW 10.4 mph - N/A   Clear
7:54 AM 73.0 °F 39.9 °F 30% 29.93 in 10.0 mi Variable 6.9 mph - N/A   Clear
8:54 AM 75.0 °F 43.0 °F 32% 29.96 in 10.0 mi SE 4.6 mph 16.1 mph N/A   Clear
9:54 AM 78.1 °F 43.0 °F 29% 29.96 in 10.0 mi Variable 3.5 mph - N/A   Clear
10:54 AM 81.0 °F 42.1 °F 25% 29.94 in 10.0 mi Calm Calm - N/A   Clear
11:54 AM 82.9 °F 41.0 °F 23% 29.92 in 10.0 mi Variable 3.5 mph - N/A   Clear
12:54 PM 87.1 °F 41.0 °F 20% 29.88 in 10.0 mi East 9.2 mph - N/A   Clear
1:54 PM 89.1 °F 41.0 °F 19% 29.87 in 10.0 mi ENE 6.9 mph - N/A   Clear
3:54 PM 86.0 °F 41.0 °F 20% 29.86 in 10.0 mi East 6.9 mph - N/A   Mostly Cloudy
4:54 PM 87.1 °F 41.0 °F 20% 29.84 in 10.0 mi ESE 8.1 mph - 0.00 in   Partly Cloudy
5:54 PM 86.0 °F 39.9 °F 20% 29.85 in 10.0 mi Calm Calm - N/A   Clear
6:54 PM 84.0 °F 41.0 °F 22% 29.86 in 10.0 mi ENE 3.5 mph - N/A   Clear
7:54 PM 81.0 °F 41.0 °F 24% 29.85 in 10.0 mi East 3.5 mph - N/A   Scattered Clouds
8:54 PM 79.0 °F 39.9 °F 25% 29.88 in 10.0 mi WNW 8.1 mph - N/A   Mostly Cloudy
9:54 PM 75.9 °F 48.9 °F 38% 29.90 in 10.0 mi North 10.4 mph - N/A   Overcast
10:54 PM 75.0 °F 48.0 °F 38% 29.90 in 10.0 mi North 9.2 mph - N/A   Mostly Cloudy
11:54 PM 72.0 °F 48.9 °F 44% 29.92 in 10.0 mi WSW 3.5 mph - 0.00 in   Partly Cloudy